Temperature
19 18 18 18 18 18 17 17 17 17 16 16 16 16 16 15 15 15 15 15 15 15 15 15 14 14 14 14 14 14 14 14 14 14 13 13 13 13 13 13 13 13 13
18 18 18 18 18 18 17 17 17 17 16 16 16 16 15 15 15 15 15 15 15 15 14 14 14 14 14 14 14 14 14 14 14 14 13 13 13 13 13 13 13 13 13
18 18 18 18 18 18 17 17 17 16 16 16 16 15 15 15 15 15 15 14 14 14 14 14 14 14 14 14 14 14 14 14 14 14 13 13 13 13 13 13 13 13 13
18 18 18 18 18 18 17 17 16 16 16 16 15 15 15 15 15 14 14 14 14 14 14 14 14 14 14 14 14 14 13 14 14 14 14 13 13 13 12 12 13 13 13
18 18 18 18 17 17 17 17 16 16 16 15 15 15 15 15 14 14 14 14 14 14 14 14 14 14 14 14 13 13 13 13 13 13 13 13 13 13 13 12 12 12 12
18 18 18 17 17 17 17 16 16 16 15 15 15 15 15 14 14 14 14 14 14 14 14 14 14 13 13 13 13 13 13 13 13 13 13 13 13 13 13 12 12 12 12
18 18 17 17 17 17 16 16 16 15 15 15 15 15 14 14 14 14 14 14 13 13 13 13 13 13 13 13 13 13 13 13 13 13 13 13 13 13 13 12 12 12 12
17 18 17 17 17 16 16 16 15 15 15 15 15 14 14 14 14 14 14 14 13 13 13 13 13 13 13 13 13 13 13 13 13 13 13 13 12 12 12 12 12 11 11
17 17 17 17 17 16 16 16 15 15 15 14 14 14 14 14 14 14 13 13 13 13 13 13 13 13 13 13 13 13 13 13 13 12 12 12 12 12 12 12 12 12 11
17 17 17 17 16 16 16 15 15 15 15 14 14 14 14 13 13 13 13 13 13 13 13 13 13 13 13 13 13 13 13 12 12 12 12 12 12 12 12 12 12 12 12
16 16 16 16 16 16 15 15 15 14 14 14 14 13 13 13 13 13 13 13 13 13 13 13 13 13 12 12 12 12 12 12 12 12 12 12 12 12 12 12 11 11 11
16 16 16 16 15 15 15 14 14 14 14 14 13 13 13 13 13 13 13 13 13 13 13 12 12 12 12 12 12 12 12 12 12 12 12 12 11 11 11 11 11 11 11
16 15 15 15 15 15 14 14 14 13 13 13 13 13 13 13 12 12 12 12 12 12 12 12 12 12 12 12 12 12 12 12 12 11 11 11 11 11 11 11 11 10 10
15 15 15 15 15 14 14 14 13 13 13 13 13 13 12 12 12 12 12 12 12 12 12 12 12 12 12 12 12 12 11 11 11 11 11 11 11 11 10 10 10 10 10
15 14 14 14 14 14 14 13 13 13 13 12 12 12 12 12 12 12 12 12 12 12 12 12 12 11 11 11 11 11 11 11 11 11 11 10 10 10 10 10 10 9 9
14 14 14 14 14 14 14 13 13 13 13 12 12 12 12 12 12 12 11 11 11 11 11 11 11 11 11 11 11 11 11 11 11 11 10 10 10 10 9 9 9 9 9
15 14 14 14 14 14 13 13 13 12 12 12 12 12 11 11 11 11 11 11 11 11 11 11 11 11 11 11 11 11 11 11 10 10 10 10 9 9 9 9 9 9 8
15 15 14 14 14 14 13 13 13 12 12 12 11 11 11 11 11 11 11 11 10 11 11 11 11 11 11 11 11 10 10 10 10 10 10 10 9 9 9 9 9 8 8
15 14 14 14 14 13 13 13 12 12 12 11 11 11 11 10 10 10 10 10 10 10 10 10 10 10 10 10 10 10 10 10 10 9 9 9 9 9 9 8 8 8 8
14 14 14 13 13 13 13 12 12 11 11 11 11 11 10 10 10 10 10 10 10 10 10 10 10 10 10 10 10 10 10 9 9 9 9 9 9 8 8 8 8 8 8
14 14 13 13 13 12 12 12 12 11 11 11 11 10 10 10 10 10 9 9 9 9 9 9 9 9 9 9 9 9 9 9 9 9 9 8 8 8 8 8 8 8 7
13 13 13 13 12 12 12 11 11 11 11 11 10 10 10 10 9 9 9 9 9 9 9 9 9 9 9 9 9 9 9 9 8 8 8 8 8 8 7 7 7 7 7
13 12 12 12 12 11 11 11 11 11 10 10 10 10 10 9 9 9 9 9 8 8 8 8 8 8 8 8 8 8 8 8 8 8 8 8 7 7 7 7 7 7 6
12 12 12 11 11 11 11 10 10 10 10 10 9 9 9 9 8 8 8 8 8 8 8 8 8 8 8 8 8 8 8 8 7 7 7 7 7 7 6 6 6 6 6
12 12 11 11 11 11 10 10 10 10 9 9 9 9 8 8 8 8 8 8 8 8 8 8 8 8 8 8 7 7 7 7 7 7 7 7 6 6 6 6 6 6 5
11 11 11 11 10 10 10 10 10 9 9 9 9 8 8 8 8 8 7 7 7 7 7 7 7 7 7 7 7 7 7 7 7 6 6 6 6 6 6 6 5 5 5
Wind_Speed
6 5 5 5 6 5 5 5 4 3 4 3 3 2 1 1 1 2 4 5 5 5 5 3 3 3 4 3 4 4 4 3 3 4 4 4 4 4 3 3 3 4 4
4 5 5 5 5 6 5 4 4 4 3 2 2 2 2 1 1 1 2 3 4 4 4 3 3 3 3 4 3 3 3 2 2 3 3 2 3 4 3 3 3 3 4
8 7 6 5 5 6 6 5 4 4 3 3 3 3 3 2 2 2 0 1 3 3 3 3 2 3 3 3 3 3 4 2 1 2 3 3 2 1 3 3 3 3 2
6 6 6 6 6 6 6 6 5 4 3 4 4 4 3 1 1 1 1 0 2 2 3 3 2 2 2 3 3 3 3 3 2 1 1 2 4 3 0 3 3 3 2
7 7 7 7 6 6 6 5 5 4 4 3 4 4 3 2 1 0 1 0 0 1 2 3 2 2 2 3 3 3 3 2 2 2 1 2 2 2 3 1 2 2 2
7 6 5 4 4 4 5 5 5 4 4 4 4 4 4 3 2 1 1 1 1 1 1 2 2 2 2 3 3 3 3 2 2 2 2 2 2 2 2 2 1 0 2
7 6 6 5 5 5 5 5 5 3 3 4 4 4 4 4 4 3 3 2 1 1 2 1 2 2 2 3 3 3 3 3 3 2 2 2 1 2 3 3 2 1 1
7 7 8 7 6 6 5 6 5 4 3 3 3 2 3 2 2 3 3 3 3 3 3 2 2 2 2 3 3 3 2 2 2 2 2 2 1 2 2 3 3 1 1
6 7 7 6 7 6 6 7 6 4 3 3 2 2 2 2 2 2 2 2 3 3 3 3 2 1 2 3 4 3 3 3 2 2 2 2 1 1 2 2 3 3 2
4 5 6 6 6 6 5 5 6 5 4 3 3 2 1 1 2 2 2 2 2 2 3 4 3 2 2 3 3 3 2 3 2 2 2 1 1 1 1 2 2 2 3
5 5 5 5 5 5 4 4 4 4 3 3 3 2 1 1 1 2 2 1 1 2 3 4 4 3 3 3 3 3 4 3 2 1 2 2 2 2 1 2 2 1 2
5 4 5 5 5 5 4 4 4 4 4 3 3 2 2 1 1 1 1 2 2 2 2 3 3 3 3 3 3 4 4 4 3 3 3 2 2 2 2 2 1 1 2
3 3 3 5 5 6 5 4 4 4 3 3 3 2 2 2 2 2 1 2 2 2 1 2 2 3 3 3 3 4 4 4 4 4 4 4 3 2 1 2 2 1 1
4 4 4 5 5 6 6 6 5 4 4 3 3 3 3 3 3 2 2 2 2 2 2 2 2 3 3 3 4 4 3 3 3 3 4 4 5 4 3 3 2 2 2
4 5 4 4 5 5 5 5 5 4 4 3 3 4 4 3 3 2 2 2 2 2 2 2 1 2 2 3 3 4 4 3 3 2 3 4 5 5 4 3 3 3 2
5 5 5 5 5 5 6 5 5 5 4 4 3 3 3 2 2 3 2 2 1 2 2 2 2 2 2 3 4 4 4 4 4 3 3 3 3 4 4 4 4 5 4
6 6 6 6 6 6 6 6 5 4 4 4 3 3 2 2 2 2 2 2 2 2 2 2 2 3 4 4 4 5 4 4 4 4 3 3 3 3 3 3 3 4 5
6 6 6 6 5 5 5 5 4 4 4 4 3 3 3 2 2 2 2 2 2 2 3 3 3 3 4 4 4 4 4 3 4 4 5 4 4 3 3 3 2 2 3
5 6 7 6 5 4 5 5 5 4 4 4 4 4 3 3 2 3 3 2 2 2 3 3 4 3 4 5 5 4 3 3 3 4 4 4 4 5 5 4 3 2 3
3 4 4 3 4 4 4 5 5 5 5 5 5 4 4 4 4 4 3 2 2 3 3 3 4 4 4 5 6 5 3 3 3 2 3 5 6 6 6 5 4 4 4
2 3 3 4 4 4 4 4 5 6 6 5 4 4 4 4 4 3 2 2 2 2 2 2 3 4 5 5 6 6 4 4 4 3 3 4 6 6 6 5 5 6 4
0 2 3 3 3 4 5 4 5 5 4 4 3 4 4 3 2 3 2 2 2 2 2 2 2 3 4 4 5 6 6 5 4 4 4 4 6 6 6 5 5 4 3
1 1 2 3 2 4 5 5 5 2 3 3 3 3 3 2 2 3 2 2 2 2 2 2 3 3 3 3 4 5 6 6 4 4 5 5 5 5 5 5 4 3 2
2 1 2 2 3 3 4 4 3 3 3 3 3 2 2 1 1 1 2 2 3 3 3 3 3 3 3 3 2 2 3 3 3 2 3 3 3 2 3 3 3 2 3
2 2 3 3 3 3 3 3 3 3 3 3 3 2 2 2 2 1 2 3 3 4 4 4 4 4 4 5 5 3 3 3 3 2 1 1 1 1 1 2 2 2 2
2 2 2 3 3 3 4 3 3 4 4 3 3 3 2 2 2 1 2 3 3 3 3 3 4 4 5 5 5 5 4 4 5 3 2 3 3 4 4 4 3 3 4
Wind_Direction
208 178 167 149 136 132 130 131 127 125 109 101 110 112 105 91 84 77 86 88 86 85 86 89 89 94 105 109 108 103 91 76 83 86 62 35 39 52 47 51 62 64 67
197 173 164 153 152 150 149 147 143 139 128 122 129 138 142 127 125 63 79 96 96 93 101 103 117 114 113 101 99 106 102 91 88 109 101 54 13 14 26 34 51 46 54
187 184 172 168 164 164 164 163 158 145 134 119 99 82 63 50 38 26 16 73 100 101 108 120 124 123 124 133 132 124 120 126 61 93 125 132 181 325 356 16 32 36 49
185 182 178 173 180 183 169 162 157 150 143 129 122 123 127 147 215 217 233 255 109 121 119 117 125 131 133 140 154 140 134 133 139 70 75 134 149 141 65 352 2 17 35
183 184 184 182 184 175 165 166 157 154 156 149 144 140 143 175 172 139 138 165 325 106 127 126 128 138 146 151 148 129 127 131 142 148 123 91 82 96 129 146 338 2 355
186 183 180 169 174 162 157 160 156 163 160 155 156 156 160 161 150 163 189 220 254 273 243 138 127 139 149 154 153 148 139 136 128 120 117 131 129 144 139 151 173 311 315
176 175 170 170 171 164 163 157 152 158 161 161 169 174 176 173 182 192 197 193 197 215 229 177 158 156 156 153 143 136 141 141 133 125 119 124 139 144 143 140 155 154 318
177 180 180 175 172 166 160 153 153 152 150 154 174 176 175 181 194 198 196 197 202 207 201 191 171 164 155 148 142 137 149 139 140 136 129 116 122 139 146 154 149 127 2
190 185 178 171 167 165 163 165 162 159 159 154 147 159 173 183 201 211 206 208 208 201 190 186 174 179 168 159 151 150 157 143 142 145 141 136 161 151 139 144 154 156 177
187 181 176 175 170 170 168 164 162 166 166 158 166 173 186 199 191 179 192 203 207 203 179 180 174 179 180 164 159 155 153 139 148 150 137 132 149 140 124 132 125 140 164
185 185 179 176 163 155 153 157 167 164 164 168 175 175 199 203 180 170 184 182 174 171 170 174 172 180 179 173 165 168 158 153 157 152 146 153 142 128 112 116 120 127 135
188 184 173 163 159 159 166 173 178 178 183 181 174 179 187 165 157 196 199 179 165 166 171 163 163 172 171 171 172 177 167 163 166 170 157 169 146 131 138 139 149 163 158
167 156 160 169 176 177 179 183 187 190 192 177 173 175 177 175 190 216 215 194 182 176 170 154 174 186 182 179 178 170 171 176 181 180 176 181 158 153 156 153 159 168 155
174 170 176 182 186 189 186 185 195 190 186 182 180 189 200 197 201 207 207 205 195 184 184 183 190 198 197 195 189 179 177 181 186 189 184 183 176 176 171 162 163 153 137
184 186 189 196 195 193 190 189 191 188 183 182 192 210 214 206 198 201 211 209 196 192 194 182 181 201 201 203 195 189 184 181 181 186 187 187 186 183 180 174 172 161 156
201 199 197 201 204 200 192 190 192 192 180 183 200 209 207 207 205 209 211 201 209 204 194 193 188 209 221 203 186 179 180 179 180 190 196 196 189 189 190 189 182 174 173
205 201 205 210 209 205 194 192 197 186 176 188 202 203 195 199 218 216 201 203 211 206 206 212 202 218 226 206 195 189 178 182 189 193 196 206 206 196 191 206 206 209 206
208 209 208 209 209 201 191 184 178 176 180 190 206 209 197 203 220 204 206 225 218 206 212 214 213 222 232 214 201 191 181 182 198 202 197 194 199 202 180 177 193 223 235
210 212 211 206 198 190 185 173 176 179 184 199 210 211 199 200 210 214 222 228 216 226 224 215 208 219 241 226 211 189 180 189 206 211 201 193 198 209 189 174 193 231 256
204 206 203 180 179 190 169 167 182 187 202 209 210 209 198 195 208 216 222 237 221 227 227 233 224 220 235 234 217 199 184 198 215 222 218 213 209 208 198 190 196 222 238
213 184 170 175 189 183 165 176 189 205 213 207 202 202 201 200 206 205 208 216 221 230 245 244 249 237 238 237 220 207 194 200 206 215 225 231 219 215 214 209 210 226 220
192 169 170 189 189 175 172 193 212 218 202 186 191 199 203 207 206 195 212 213 192 198 237 250 270 260 251 241 229 222 216 206 203 217 224 226 217 218 222 226 232 223 203
216 200 177 184 192 189 182 198 223 208 175 171 187 197 198 212 202 198 211 221 205 205 226 226 253 262 258 256 246 235 229 221 219 226 224 223 218 218 226 235 224 205 186
208 200 164 177 207 209 200 208 210 180 164 174 185 185 182 200 209 220 219 219 222 222 227 227 243 258 250 248 241 233 231 220 226 234 231 221 208 208 221 227 230 220 206
219 199 196 206 217 207 209 213 194 172 176 186 190 188 189 192 198 231 237 232 234 231 230 228 222 228 240 245 234 214 210 200 200 171 139 148 170 205 230 239 239 233 223
214 214 216 221 223 207 207 209 189 175 178 190 196 196 196 200 204 223 294 297 283 287 279 263 244 243 248 248 239 233 222 202 177 155 187 209 215 219 223 226 234 235 231
Height
1523 1525 1526 1526 1527 1527 1528 1528 1529 1529 1529 1529 1529 1529 1529 1529 1529 1529 1529 1529 1529 1529 1529 1529 1529 1529 1530 1530 1530 1531 1531 1532 1532 1532 1533 1535 1535 1536 1536 1536 1536 1536 1536
1521 1523 1524 1525 1526 1526 1527 1528 1528 1529 1529 1529 1529 1529 1529 1529 1529 1529 1529 1529 1529 1529 1529 1528 1529 1529 1530 1530 1530 1531 1531 1532 1533 1533 1533 1535 1537 1536 1537 1537 1537 1536 1536
1519 1521 1522 1524 1525 1525 1526 1526 1527 1528 1528 1528 1529 1528 1529 1528 1528 1528 1528 1528 1528 1528 1528 1528 1529 1529 1529 1530 1530 1531 1531 1532 1533 1533 1534 1534 1535 1537 1538 1537 1537 1537 1537
1518 1519 1521 1522 1523 1523 1524 1525 1526 1526 1527 1527 1527 1527 1527 1527 1527 1527 1527 1528 1527 1527 1528 1528 1528 1529 1529 1529 1530 1531 1531 1532 1532 1533 1533 1534 1534 1535 1537 1538 1537 1537 1537
1516 1517 1519 1520 1521 1522 1523 1524 1524 1525 1526 1526 1526 1526 1526 1526 1526 1526 1527 1527 1527 1527 1527 1527 1527 1528 1528 1529 1529 1530 1531 1532 1532 1532 1533 1533 1534 1534 1535 1536 1537 1537 1537
1513 1515 1517 1518 1519 1520 1521 1522 1523 1524 1524 1524 1525 1525 1524 1524 1525 1525 1525 1525 1525 1525 1526 1526 1526 1526 1527 1528 1528 1529 1530 1531 1531 1531 1532 1532 1533 1533 1534 1534 1535 1536 1536
1510 1512 1514 1515 1517 1518 1519 1520 1521 1522 1522 1523 1523 1523 1523 1523 1523 1523 1523 1523 1523 1523 1524 1524 1524 1525 1526 1526 1527 1528 1529 1529 1530 1530 1531 1532 1532 1533 1533 1534 1534 1534 1535
1508 1510 1511 1513 1514 1515 1517 1518 1519 1520 1520 1521 1521 1521 1521 1521 1521 1521 1521 1521 1521 1521 1522 1522 1523 1523 1524 1525 1526 1527 1527 1528 1529 1529 1530 1531 1531 1532 1532 1533 1533 1533 1534
1506 1507 1509 1510 1512 1513 1515 1516 1517 1518 1518 1518 1519 1519 1519 1519 1519 1519 1519 1519 1519 1519 1520 1520 1521 1522 1522 1523 1524 1525 1526 1526 1527 1528 1529 1529 1530 1530 1531 1531 1532 1532 1531
1504 1506 1507 1508 1510 1511 1513 1514 1515 1515 1516 1516 1516 1517 1517 1516 1516 1516 1516 1517 1517 1517 1518 1518 1519 1519 1520 1521 1522 1523 1524 1525 1525 1526 1527 1528 1528 1529 1529 1529 1530 1530 1530
1502 1503 1505 1506 1508 1509 1511 1512 1513 1513 1514 1514 1514 1514 1514 1514 1514 1514 1514 1514 1514 1515 1515 1516 1517 1517 1518 1519 1520 1521 1522 1522 1523 1524 1525 1525 1526 1526 1527 1527 1527 1528 1528
1501 1502 1503 1504 1505 1507 1508 1510 1510 1511 1511 1512 1512 1512 1512 1512 1512 1512 1512 1512 1512 1513 1513 1514 1514 1515 1516 1517 1517 1518 1519 1520 1521 1521 1522 1523 1523 1523 1524 1524 1524 1525 1525
1500 1501 1501 1502 1503 1505 1506 1507 1508 1509 1509 1510 1509 1509 1510 1509 1509 1509 1510 1510 1510 1510 1511 1511 1512 1513 1513 1514 1515 1516 1517 1518 1518 1519 1519 1520 1520 1520 1521 1521 1522 1522 1522
1499 1499 1500 1500 1502 1503 1504 1505 1506 1506 1507 1507 1507 1507 1507 1507 1507 1507 1507 1507 1507 1508 1508 1509 1509 1510 1511 1512 1512 1513 1514 1515 1516 1516 1517 1517 1517 1518 1518 1518 1519 1519 1520
1497 1497 1497 1498 1499 1500 1502 1502 1503 1504 1504 1504 1505 1505 1505 1505 1505 1505 1505 1505 1505 1505 1505 1506 1507 1507 1508 1509 1510 1510 1511 1512 1512 1513 1513 1514 1514 1515 1516 1516 1516 1516 1516
1494 1494 1495 1496 1497 1497 1498 1499 1500 1501 1502 1502 1502 1502 1503 1503 1503 1502 1503 1502 1502 1502 1502 1503 1503 1504 1505 1506 1507 1507 1508 1508 1509 1509 1510 1510 1511 1512 1512 1513 1513 1514 1513
1492 1492 1492 1493 1494 1494 1495 1496 1497 1498 1499 1499 1499 1499 1499 1500 1500 1500 1500 1499 1499 1499 1499 1499 1500 1500 1501 1502 1503 1504 1504 1505 1505 1506 1506 1507 1507 1508 1509 1509 1510 1510 1510
1489 1489 1490 1490 1491 1492 1493 1494 1495 1495 1495 1496 1496 1496 1496 1496 1496 1496 1496 1496 1496 1496 1496 1496 1496 1497 1498 1499 1499 1500 1501 1501 1502 1502 1502 1503 1503 1504 1505 1505 1505 1506 1506
1486 1487 1487 1487 1487 1488 1489 1490 1491 1491 1492 1492 1493 1493 1493 1493 1493 1493 1493 1492 1492 1492 1492 1493 1493 1493 1494 1495 1496 1497 1497 1497 1497 1498 1499 1499 1499 1500 1501 1501 1501 1501 1502
1484 1485 1485 1484 1484 1485 1486 1486 1487 1487 1488 1489 1489 1490 1490 1490 1490 1490 1490 1490 1489 1489 1489 1489 1489 1490 1490 1491 1492 1493 1493 1493 1493 1494 1495 1495 1496 1496 1497 1497 1497 1497 1497
1481 1481 1481 1481 1481 1482 1483 1483 1483 1484 1485 1485 1486 1486 1487 1487 1487 1487 1487 1487 1486 1486 1485 1485 1485 1486 1487 1487 1488 1489 1489 1489 1489 1490 1490 1491 1492 1492 1493 1493 1493 1493 1493
1478 1478 1478 1478 1478 1479 1480 1480 1480 1481 1481 1482 1482 1483 1483 1484 1484 1484 1484 1483 1483 1482 1482 1482 1482 1482 1483 1483 1484 1485 1485 1485 1485 1486 1486 1487 1488 1488 1488 1489 1489 1489 1490
1476 1475 1475 1475 1476 1476 1477 1477 1477 1478 1478 1479 1479 1479 1480 1480 1481 1480 1480 1480 1479 1478 1478 1478 1478 1478 1478 1479 1479 1480 1481 1481 1481 1482 1482 1483 1483 1484 1484 1484 1485 1485 1485
1473 1473 1473 1473 1473 1473 1473 1474 1475 1475 1475 1475 1476 1476 1476 1477 1477 1477 1477 1476 1475 1475 1474 1474 1474 1474 1474 1474 1475 1475 1476 1476 1477 1478 1478 1479 1479 1479 1480 1480 1480 1480 1481
1471 1471 1470 1470 1470 1470 1470 1472 1472 1472 1472 1473 1473 1473 1473 1473 1473 1473 1473 1472 1472 1472 1471 1471 1470 1470 1470 1470 1471 1471 1472 1472 1473 1473 1473 1473 1474 1474 1474 1474 1475 1475 1476
1468 1468 1468 1468 1467 1467 1468 1468 1468 1469 1469 1470 1470 1469 1469 1469 1470 1469 1470 1469 1469 1468 1468 1468 1468 1467 1467 1467 1467 1468 1468 1469 1469 1469 1468 1468 1469 1469 1469 1469 1470 1470 1470